[[{"header":{"parameterUnit":"m.s-1","parameterCategory":1,"la1":30.2991,"la2":30.254,"lo1":-89.0895,"lo2":-89.0444,"dy":0.0017,"dx":0.0017,"nx":28,"ny":28,"refTime":"2024-02-11T03:00:00:Z","depth":0,"parameterNumber":2,"parameterNumberName":"U-component_of_WINDS"},"data":[0,0,0,0,0,0,0,0,0,0,0,0,0,0,0,0,0,0,0,0,0,0,0,0,0,0,0,0,0,0,0,0,0,0,0,0,0,0,0,0,0,0,0,0,0,0,0,0,0,0,0,0,0,0,0,0,0,0,-2.7677,-2.7676,0,-2.7639,-2.7638,-2.7638,-2.7575,-2.7574,-2.7573,-2.7572,-2.7533,-2.7533,-2.7533,0,0,0,0,0,0,0,0,0,0,0,0,0,-2.7697,-2.7697,-2.7677,-2.7676,-2.7676,-2.7639,-2.7638,-2.7638,-2.7576,-2.7574,-2.7573,-2.7572,-2.7533,-2.7533,-2.7533,0,0,0,0,0,0,0,0,0,0,0,0,0,-2.7676,-2.7697,-2.7677,-2.764,-2.7637,-2.7639,-2.7638,-2.7637,-2.7576,-2.7574,-2.7572,-2.7571,-2.7532,-2.7533,-2.7533,-2.7567,0,0,-2.7533,-2.7533,0,0,0,0,0,0,0,0,-2.7677,-2.7676,-2.7646,-2.7643,-2.7639,-2.761,-2.763,-2.7614,-2.7576,-2.7599,-2.7572,-2.757,-2.756,-2.7557,-2.7554,-2.7565,-2.7563,-2.7533,-2.7533,-2.7533,-2.7533,0,0,0,0,0,0,0,-2.7679,-2.7677,-2.7662,-2.7646,-2.7641,-2.7626,-2.7621,-2.7627,-2.7589,-2.7597,-2.7592,-2.7589,-2.7557,-2.7554,-2.7552,-2.7563,-2.7533,-2.7533,-2.7533,-2.7533,-2.7599,-2.7601,0,0,0,0,0,0,-2.7686,-2.7678,-2.7663,-2.766,-2.7654,-2.7627,-2.7622,-2.7621,-2.7589,-2.7583,-2.759,-2.7586,-2.7555,-2.7553,-2.7551,-2.7588,-2.7533,-2.7533,-2.7533,-2.7598,-2.76,-2.7602,0,0,0,0,0,0,-2.7686,-2.7685,-2.7664,-2.7668,-2.7664,-2.7629,-2.7628,-2.7621,-2.7618,-2.7584,-2.7577,-2.7594,-2.7553,-2.7551,-2.7563,-2.7585,-2.7533,-2.7533,-2.7596,-2.7598,-2.7601,-2.7663,0,0,0,0,0,0,-2.7687,-2.7686,-2.7698,-2.7669,-2.7664,-2.7677,-2.763,-2.7622,-2.7618,-2.7612,-2.7585,-2.7579,-2.7552,-2.7564,-2.7563,-2.7585,-2.7533,-2.7593,-2.7597,-2.76,-2.7658,-2.7667,-2.7674,0,0,0,0,0,-2.7688,-2.7717,-2.7699,-2.7697,-2.7679,-2.7679,-2.7676,-2.7644,-2.762,-2.7632,-2.7611,-2.758,-2.7584,-2.7565,-2.7564,-2.7586,-2.7592,-2.7596,-2.76,-2.7655,-2.7665,-2.7674,0,0,0,0,0,0,-2.7749,-2.7712,-2.7692,-2.7712,-2.7699,-2.7668,-2.7682,-2.7656,-2.765,-2.7644,-2.7605,-2.7599,-2.7617,-2.7603,-2.7583,-2.7617,-2.7583,-2.7587,-2.7625,-2.7635,-2.7643,-2.7645,-2.7533,0,0,0,0,0,-2.7765,-2.7768,-2.7736,-2.7757,-2.7751,-2.7719,-2.7717,-2.7694,-2.7678,-2.7672,-2.7652,-2.7638,-2.7636,-2.7635,-2.7631,-2.7657,-2.765,-2.7672,-2.768,-2.7687,-2.769,-2.7701,-2.771,-2.7615,-2.7615,-2.7615,0,0,-2.7798,-2.7778,-2.7782,-2.7769,-2.7755,-2.7759,-2.7714,-2.772,-2.7721,-2.7673,-2.7683,-2.7668,-2.765,-2.7669,-2.7676,-2.7658,-2.7715,-2.7692,-2.7697,-2.7697,-2.7706,-2.7715,-2.7724,-2.7617,-2.7617,-2.7617,0,0,-2.7858,-2.7844,-2.786,-2.7848,-2.7829,-2.7807,-2.7811,-2.7785,-2.7773,-2.7782,-2.7746,-2.7748,-2.7746,-2.7734,-2.7728,-2.7786,-2.7757,-2.7786,-2.7827,-2.7839,-2.7847,-2.7853,-2.7872,-2.788,-2.779,-2.779,-2.779,0,-2.7901,-2.7904,-2.7871,-2.7879,-2.7874,-2.7831,-2.7846,-2.7836,-2.7818,-2.7815,-2.7795,-2.7791,-2.7776,-2.7791,-2.7806,-2.7803,-2.7805,-2.7788,-2.7848,-2.7854,-2.786,-2.7877,-2.7885,-2.7794,-2.7793,-2.7793,-2.7793,0,-2.7957,-2.796,-2.7975,-2.7958,-2.7955,-2.7967,-2.7935,-2.7936,-2.7914,-2.7894,-2.7904,-2.7885,-2.7877,-2.7879,-2.7857,-2.7891,-2.788,-2.7856,-2.7819,-2.7873,-2.7889,-2.7895,-2.7799,-2.7797,-2.7796,-2.7795,0,0,-2.8052,-2.8018,-2.8023,-2.8015,-2.7992,-2.7993,-2.8004,-2.7996,-2.7997,-2.7986,-2.7992,-2.7992,-2.7969,-2.7962,-2.7939,-2.795,-2.7995,-2.7923,-2.7922,-2.7935,-2.803,-2.8047,-2.8056,-2.7977,-2.7978,-2.7979,-2.8031,0,-2.8106,-2.8121,-2.8092,-2.8113,-2.8115,-2.8076,-2.8084,-2.8071,-2.8054,-2.8053,-2.8034,-2.8033,-2.8004,-2.7999,-2.8008,-2.7988,-2.8013,-2.7984,-2.7982,-2.7982,-2.7985,-2.8064,-2.8082,-2.8131,-2.8037,-2.8038,-2.8039,0,-2.817,-2.8163,-2.8184,-2.816,-2.816,-2.8168,-2.8158,-2.8159,-2.8143,-2.813,-2.8123,-2.8096,-2.8104,-2.8072,-2.8082,-2.8062,-2.806,-2.805,-2.8051,-2.8048,-2.8012,-2.806,-2.8147,-2.8153,-2.8048,-2.8048,-2.8047,0,-2.8235,-2.8231,-2.8243,-2.8237,-2.821,-2.8216,-2.8205,-2.8188,-2.8185,-2.8177,-2.8174,-2.8168,-2.8164,-2.8159,-2.8131,-2.811,-2.8144,-2.8109,-2.8132,-2.8132,-2.8138,-2.8137,-2.8223,-2.8141,-2.8141,-2.8141,-2.8141,0,-2.8297,-2.8311,-2.8272,-2.8279,-2.8294,-2.8261,-2.8277,-2.8262,-2.8247,-2.8251,-2.8217,-2.8221,-2.8185,-2.8185,-2.8163,-2.8174,-2.8173,-2.8162,-2.8155,-2.8163,-2.8164,-2.8159,-2.8154,-2.8143,-2.8142,-2.8142,-2.8142,0,-2.8371,-2.8345,-2.8355,-2.8329,-2.8323,-2.8335,-2.8312,-2.8317,-2.8299,-2.8304,-2.8303,-2.8273,-2.8272,-2.8244,-2.8236,-2.8222,-2.8241,-2.8229,-2.8245,-2.8241,-2.8264,-2.8261,-2.8346,-2.8355,-2.8271,-2.8272,-2.8272,0,-2.8411,-2.8421,-2.8396,-2.8396,-2.8386,-2.8387,-2.8384,-2.8353,-2.8351,-2.8335,-2.8342,-2.8338,-2.8332,-2.8332,-2.8309,-2.8303,-2.829,-2.832,-2.8288,-2.8296,-2.8288,-2.8286,-2.8286,-2.8326,-2.8327,-2.8328,-2.8329,0,-2.8483,-2.847,-2.8467,-2.846,-2.8457,-2.845,-2.844,-2.8443,-2.8408,-2.8408,-2.8406,-2.8402,-2.8395,-2.8391,-2.8381,-2.8369,-2.8343,-2.834,-2.8344,-2.8351,-2.8359,-2.8353,-2.8261,-2.8337,-2.8336,-2.8335,-2.8335,-2.8335,-2.854,-2.8546,-2.853,-2.8528,-2.8518,-2.851,-2.8513,-2.8496,-2.8493,-2.8485,-2.8467,-2.8468,-2.8452,-2.8437,-2.8428,-2.8427,-2.8412,-2.8419,-2.842,-2.8421,-2.8425,-2.8362,-2.8426,-2.8426,-2.8425,-2.8425,-2.8425,0,-2.8609,-2.8597,-2.8595,-2.8583,-2.8581,-2.8558,-2.8547,-2.8547,-2.8548,-2.8536,-2.8532,-2.8529,-2.8526,-2.8504,-2.8497,-2.8501,-2.8489,-2.85,-2.8498,-2.8496,-2.8441,-2.8436,-2.851,-2.851,-2.851,-2.851,-2.851,-2.851,-2.8644,-2.8654,-2.864,-2.8644,-2.8632,-2.8632,-2.8628,-2.862,-2.861,-2.8609,-2.8606,-2.8592,-2.8576,-2.8569,-2.8564,-2.8558,-2.8556,-2.8571,-2.856,-2.8508,-2.85,-2.8492,-2.8488,-2.8571,-2.8571,-2.8615,-2.8615,-2.8616]},{"header":{"parameterUnit":"m.s-1","parameterCategory":1,"la1":30.2991,"la2":30.254,"lo1":-89.0895,"lo2":-89.0444,"dy":0.0017,"dx":0.0017,"nx":28,"ny":28,"refTime":"2024-02-11T03:00:00:Z","depth":0,"parameterNumber":3,"parameterNumberName":"V-component_of_WINDS"},"data":[0,0,0,0,0,0,0,0,0,0,0,0,0,0,0,0,0,0,0,0,0,0,0,0,0,0,0,0,0,0,0,0,0,0,0,0,0,0,0,0,0,0,0,0,0,0,0,0,0,0,0,0,0,0,0,0,0,0,2.3771,2.3773,0,2.3925,2.3927,2.3929,2.3989,2.3989,2.3988,2.3988,2.4144,2.4149,2.4153,0,0,0,0,0,0,0,0,0,0,0,0,0,2.3528,2.3532,2.3771,2.3773,2.3775,2.3925,2.3927,2.3929,2.3989,2.3988,2.3988,2.3988,2.4143,2.4148,2.4154,0,0,0,0,0,0,0,0,0,0,0,0,0,2.3653,2.3534,2.3771,2.3823,2.3829,2.3924,2.3927,2.393,2.3989,2.3988,2.3988,2.3987,2.4141,2.4148,2.4154,2.4209,0,0,2.4175,2.4178,0,0,0,0,0,0,0,0,2.3646,2.3662,2.3813,2.3819,2.3827,2.3937,2.3899,2.4023,2.3989,2.3928,2.3988,2.3987,2.4076,2.4088,2.4118,2.4216,2.4223,2.4176,2.418,2.4183,2.4185,0,0,0,0,0,0,0,2.3637,2.3655,2.3832,2.3815,2.3824,2.3838,2.3855,2.3923,2.4004,2.3934,2.3938,2.3956,2.4079,2.4111,2.4122,2.4225,2.4176,2.4182,2.4186,2.4189,2.4376,2.4377,0,0,0,0,0,0,2.362,2.3648,2.3827,2.3837,2.3733,2.3843,2.3862,2.3902,2.4003,2.4018,2.3956,2.3958,2.41,2.4114,2.4128,2.42,2.4183,2.4189,2.4193,2.4376,2.4377,2.4378,0,0,0,0,0,0,2.3614,2.3635,2.3821,2.3744,2.3768,2.3848,2.3892,2.3906,2.3938,2.402,2.4035,2.3974,2.41,2.4118,2.4189,2.4206,2.4192,2.4198,2.4374,2.4376,2.4377,2.4343,0,0,0,0,0,0,2.3607,2.3633,2.3655,2.3744,2.3772,2.3879,2.3893,2.3909,2.395,2.3954,2.4041,2.4055,2.4101,2.4178,2.4195,2.4215,2.4204,2.4373,2.4375,2.4377,2.4343,2.4343,2.4343,0,0,0,0,0,2.3598,2.3638,2.3655,2.3677,2.3801,2.388,2.3896,2.3949,2.3951,2.3973,2.4026,2.4052,2.4201,2.4185,2.4205,2.4227,2.4373,2.4375,2.4377,2.4343,2.4343,2.4343,0,0,0,0,0,0,2.3549,2.3651,2.3671,2.3741,2.3801,2.389,2.392,2.3947,2.4008,2.4009,2.4072,2.4091,2.4156,2.4198,2.4179,2.4285,2.4289,2.4295,2.4256,2.4257,2.4257,2.4246,2.4209,0,0,0,0,0,2.3546,2.3602,2.3688,2.3741,2.3771,2.384,2.3876,2.3912,2.3977,2.4002,2.406,2.4122,2.4183,2.4222,2.4282,2.4348,2.4369,2.4373,2.4373,2.4373,2.4378,2.4418,2.4421,2.4384,2.4384,2.4384,0,0,2.3541,2.3604,2.3635,2.3733,2.3784,2.3841,2.3861,2.392,2.3963,2.4011,2.4082,2.4126,2.4199,2.4268,2.4301,2.4305,2.4392,2.4375,2.4374,2.438,2.442,2.4424,2.4427,2.4386,2.4385,2.4385,0,0,2.3562,2.3614,2.3665,2.3716,2.3793,2.3839,2.385,2.3935,2.3967,2.4039,2.4077,2.4128,2.4231,2.4282,2.4321,2.436,2.4387,2.4378,2.4379,2.4417,2.442,2.4423,2.4439,2.4443,2.4382,2.4382,2.4382,0,2.3546,2.3633,2.3688,2.3745,2.3787,2.3834,2.3887,2.3933,2.4025,2.4053,2.4056,2.4187,2.4239,2.4322,2.4331,2.4361,2.4377,2.4369,2.4415,2.4418,2.4422,2.4438,2.4443,2.4381,2.4381,2.4381,2.4381,0,2.361,2.367,2.3702,2.3791,2.3837,2.3891,2.3954,2.3994,2.4025,2.407,2.4143,2.4207,2.4282,2.4303,2.4333,2.439,2.439,2.4403,2.4408,2.4423,2.4439,2.4446,2.4379,2.4379,2.438,2.438,0,0,2.3606,2.3724,2.3735,2.3777,2.3865,2.3912,2.3968,2.4042,2.4076,2.4137,2.4187,2.4273,2.4286,2.433,2.4366,2.4399,2.4428,2.4408,2.4411,2.4412,2.4496,2.4488,2.4494,2.4445,2.4447,2.4448,2.4491,0,2.3639,2.3743,2.3794,2.3876,2.3933,2.3977,2.4027,2.4086,2.413,2.4184,2.4231,2.4292,2.4303,2.4331,2.4365,2.4417,2.4447,2.4415,2.4493,2.4495,2.4476,2.4502,2.4494,2.4531,2.4497,2.4498,2.4499,0,2.3693,2.3756,2.3843,2.3926,2.3952,2.3995,2.4068,2.4118,2.4186,2.4216,2.4265,2.4301,2.4362,2.436,2.4446,2.4423,2.4458,2.4488,2.4491,2.4502,2.45,2.4516,2.4544,2.4551,2.4509,2.4508,2.4508,0,2.3683,2.3789,2.3856,2.389,2.3987,2.4017,2.4059,2.4126,2.4168,2.423,2.4258,2.4326,2.4364,2.4415,2.4468,2.4462,2.4549,2.4552,2.4577,2.4575,2.4595,2.4594,2.4631,2.4613,2.4613,2.4613,2.4612,0,2.3717,2.377,2.3853,2.3894,2.3955,2.4012,2.407,2.4115,2.4174,2.4225,2.4267,2.4314,2.438,2.4434,2.4476,2.4541,2.4557,2.4583,2.4594,2.4581,2.4578,2.4607,2.4606,2.4614,2.4614,2.4613,2.4613,0,2.3717,2.3775,2.3851,2.3937,2.396,2.4001,2.4075,2.4116,2.4161,2.4225,2.4244,2.4315,2.4382,2.4439,2.4526,2.4554,2.4623,2.4634,2.46,2.4606,2.4629,2.4627,2.4688,2.47,2.4671,2.4671,2.4671,0,2.3736,2.3778,2.3869,2.3906,2.3948,2.4007,2.405,2.4107,2.415,2.4231,2.4263,2.4333,2.4393,2.4497,2.4556,2.4624,2.4639,2.4656,2.4649,2.4635,2.4642,2.464,2.4645,2.4657,2.4657,2.4657,2.4657,0,2.3765,2.3791,2.3852,2.3922,2.3972,2.403,2.4089,2.4117,2.4186,2.4232,2.4301,2.4347,2.4437,2.4507,2.458,2.4623,2.4652,2.4658,2.4668,2.4656,2.4636,2.465,2.4603,2.4657,2.4657,2.4657,2.4657,2.4657,2.3777,2.3817,2.3887,2.3953,2.4004,2.4058,2.4102,2.4153,2.4212,2.4291,2.4321,2.4392,2.4459,2.4562,2.4604,2.4661,2.4665,2.4679,2.4683,2.4686,2.4685,2.4624,2.4674,2.4674,2.4674,2.4674,2.4674,0,2.3809,2.3857,2.3917,2.3999,2.4051,2.4073,2.414,2.4182,2.4244,2.4305,2.4363,2.4443,2.451,2.4574,2.4645,2.4678,2.4693,2.4695,2.4695,2.4704,2.4676,2.4662,2.4682,2.4682,2.4682,2.4682,2.4682,2.4682,2.3833,2.3902,2.3937,2.4031,2.4078,2.415,2.4186,2.4237,2.4286,2.4374,2.443,2.4472,2.4534,2.461,2.4673,2.469,2.4715,2.4714,2.4735,2.4707,2.4706,2.4705,2.4692,2.4718,2.4718,2.4759,2.4759,2.476]}]]